Weather History for Saginaw, MI

Change the Weather History Date:

Monday, July 1, 2013

  Actual Average Record
Temperature  
Mean Temperature 64 °F 71 °F  
Max Temperature 72 °F 82 °F 93 °F (2002)
Min Temperature 56 °F 60 °F 48 °F (2008)
Degree Days  
Heating Degree Days 1    
Month to date heating degree days 1  
Since 1 June heating degree days 54  
Since 1 July heating degree days 1  
Cooling Degree Days 0    
Month to date cooling degree days 0  
Year to date cooling degree days 213  
Since 1 June cooling degree days 139  
Growing Degree Days 14 (Base 50)    
Moisture  
Dew Point 51 °F    
Average Humidity 64    
Maximum Humidity 75    
Minimum Humidity 52    
Precipitation  
Precipitation T in 0.09 in 1.10 in (1999)
Month to date precipitation T 0.09  
Year to date precipitation 20.89 14.72  
Snow  
Snow 0.00 in - - ()
Month to date snowfall 0.0  
Since 1 June snowfall 0.0  
Since 1 July snowfall 0.0  
Snow Depth 0.00 in    
Sea Level Pressure  
Sea Level Pressure 30.08 in    
Wind  
Wind Speed 14 mph (NNE)    
Max Wind Speed 25 mph    
Max Gust Speed 30 mph    
Visibility 10 miles    
Events Rain    
T = Trace of Precipitation, MM = Missing Value Source: NWS Daily Summary

Daily Weather History Graph

Daily Weather History Graph

Search for Another Location

Airport:

Trip Planner

Search our weather history database for the weather conditions in past years. The results will help you decide how hot, cold, wet, or windy it might be!

Date:

Astronomy

Jul. 01, 2013 Rise Set
Actual Time 5:59 AM EDT 9:21 PM EDT
Civil Twilight 5:23 AM EDT 9:56 PM EDT
Nautical Twilight 4:37 AM EDT 10:43 PM EDT
Astronomical Twilight 3:39 AM EDT 11:40 PM EDT
Moon 1:35 AM EDT (7/1) 3:29 PM EDT (7/1)
Length of Visible Light 16h 33m
Length of Day
15h 21m
Waning Crescent, 35% of the Moon is Illuminated
Jul 1
Waning Crescent
Jul 8
New
Jul 15
First Quarter
Jul 22
Full
Jul 29
Last Quarter

Hourly Weather History & Observations

Time (EDT) Temp. Dew Point Humidity Pressure Visibility Wind Dir Wind Speed Gust Speed Precip Events Conditions
12:53 AM 59.0 °F 48.0 °F 67% 30.01 in 10.0 mi North 6.9 mph - N/A   Clear
1:53 AM 59.0 °F 48.9 °F 69% 30.02 in 10.0 mi NNE 6.9 mph - N/A   Clear
2:53 AM 57.9 °F 48.9 °F 72% 30.02 in 10.0 mi NNE 8.1 mph - N/A   Clear
3:53 AM 59.0 °F 48.0 °F 67% 30.01 in 10.0 mi North 8.1 mph - N/A   Clear
4:53 AM 57.0 °F 46.9 °F 69% 30.02 in 10.0 mi North 8.1 mph - N/A   Clear
5:53 AM 57.0 °F 48.9 °F 74% 30.04 in 10.0 mi North 8.1 mph - N/A   Clear
6:53 AM 57.0 °F 48.9 °F 74% 30.05 in 10.0 mi North 9.2 mph - N/A   Clear
7:53 AM 59.0 °F 51.1 °F 75% 30.06 in 10.0 mi North 8.1 mph - N/A   Clear
8:53 AM 63.0 °F 54.0 °F 72% 30.07 in 10.0 mi NNE 8.1 mph - N/A   Clear
9:53 AM 68.0 °F 57.0 °F 68% 30.07 in 10.0 mi NE 16.1 mph 24.2 mph N/A   Clear
10:53 AM 70.0 °F 55.9 °F 61% 30.07 in 10.0 mi NE 17.3 mph 25.3 mph N/A   Clear
11:53 AM 71.1 °F 57.0 °F 61% 30.09 in 10.0 mi NE 20.7 mph 27.6 mph N/A   Clear
12:53 PM 70.0 °F 59.0 °F 68% 30.11 in 10.0 mi NE 20.7 mph 27.6 mph N/A   Clear
1:53 PM 70.0 °F 57.9 °F 65% 30.12 in 10.0 mi NE 21.9 mph 27.6 mph N/A   Clear
2:53 PM 69.1 °F 57.9 °F 68% 30.12 in 10.0 mi NNE 20.7 mph 25.3 mph N/A   Clear
3:53 PM 66.9 °F 57.0 °F 70% 30.11 in 10.0 mi NE 19.6 mph - N/A   Clear
4:53 PM 66.0 °F 55.0 °F 68% 30.11 in 10.0 mi NNE 21.9 mph 27.6 mph N/A   Clear
5:53 PM 64.9 °F 51.1 °F 61% 30.12 in 10.0 mi NE 21.9 mph - N/A   Clear
6:53 PM 64.9 °F 50.0 °F 58% 30.12 in 10.0 mi NE 19.6 mph 24.2 mph N/A   Clear
7:53 PM 64.0 °F 46.0 °F 52% 30.13 in 10.0 mi NE 18.4 mph 26.5 mph N/A   Clear
8:53 PM 64.0 °F 46.0 °F 52% 30.14 in 10.0 mi NE 16.1 mph 23.0 mph N/A   Mostly Cloudy
9:53 PM 64.0 °F 46.0 °F 52% 30.14 in 10.0 mi NE 11.5 mph - N/A   Clear
10:53 PM 64.0 °F 46.0 °F 52% 30.13 in 10.0 mi NE 11.5 mph - N/A   Overcast
11:53 PM 64.0 °F 46.0 °F 52% 30.12 in 10.0 mi NE 10.4 mph - 0.00 in Rain Light Rain